User: anonymous   Login
Location: Feydey
(46.3431°N, 7.0106°E)
Time: 23:14:21
(UTC+00:00)
Language:

COSMOS 2428 - Orbit

View from above orbital plane
View from above orbital plane
View from above satellite
View from above satellite

Ground track
Ground track

The orbit data is extracted from the following two-line orbital elements,

1 31792U 07029A   21262.60512489  .00000295  00000-0  18613-3 0  9996
2 31792  70.9149  28.1891 0005757 104.9686 255.2072 14.12355775733692
Epoch (UTC): 19 September 2021 14:31:22
Eccentricity: 0.0005757
inclination: 70.9149°
perigee height: 847 km
apogee height: 855 km
right ascension of ascending node: 28.1891°
argument of perigee: 104.9686°
revolutions per day: 14.12355775
mean anomaly at epoch: 255.2072°
orbit number at epoch: 73369

The dashed part of the orbit path shows where the satellite is in the earth's shadow,  

DLR